API VERSION: 1.2 API SOURCE: NASA/JPL Horizons API ******************************************************************************* Revised: May 16, 2025 Gaia Observatory -139479 http://sci.esa.int/gaia/ https://www.cosmos.esa.int/web/gaia/iow_20250327 https://www.youtube.com/watch?v=8RznHsG12t0 NOTE: Science observations ended 2025-Jan-25 due to decreasing attitude control propellant. On March 28, 2025, after engineering tests, Gaia left its orbit around Earth-Sun L2 and was placed in a heliocentric disposal orbit. It will return to the Earth's vicinity every 14 years, but at a distance of ~10 million km. BACKGROUND: Gaia is designed and operated by the European Space Agency. It launched December 19, 2013 @ 09:12 UTC on a Soyuz launcher from Kourou, French Guiana. On 2014-Jan-08, it arrived at its operational Lissajous orbit around the gravitationally stable Earth-Sun Lagrange-point L2, roughly 1.5 million km from Earth in the direction opposite the Sun. The orbit is not shadowed by Earth eclipses. The orbit period is about 180 days; the size of the orbit is typically 340,000 x 90,000 km. MISSION: Gaia's 5-year primary mission is to ... * Measure the positions of ~1 billion stars both in our Galaxy and other members of the Local Group, with an accuracy down to 24 uas * Perform spectral and photometric measurements of all objects * Derive space velocities of the Galaxy's constituent stars using the stellar distances and motions * Create a three-dimensional structural map of the Galaxy Additional expected results include extrasolar planet detection, brown dwarf detection, solar system asteroid discoveries, supernova early detection, and testing of Einstein's general relativity. GAIA SPACECRAFT: Spacecraft dry mass total 1392 kg Propellant 237 kg Total launch mass 2029 kg Power: 12.8 m^2 solar array provides up to 1910 Watts SCIENCE INSTRUMENTS: Single integrated instrument that comprises three major functions: astrometry, photometry (320-1000 nm) and spectrometry (846-874 nm). The three functions use two common telescopes and a shared focal plane, with each function having a dedicated area on the large 0.5m x 1m CCD detector array. SPACECRAFT TRAJECTORY (From ESOC 2025-Apr-14 16:41. Final reconstruction through 2025-Mar-28 end-of-mission, with 100 year prediction): Trajectory name Start Stop -------------------------------------------- ----------- ----------- ORB1_20250414_000001 2013-Dec-19 2125-Mar-28 ******************************************************************************* ******************************************************************************* Ephemeris / API_USER Sun Nov 9 15:34:57 2025 Pasadena, USA / Horizons ******************************************************************************* Target body name: Gaia (spacecraft) (-139479) {source: gaia_merged} Center body name: Earth (399) {source: gaia_merged} Center-site name: VdS Remote Observatory, Hakos ******************************************************************************* Start time : A.D. 2024-Nov-30 00:00:00.0000 UT Stop time : A.D. 2024-Dec-01 00:00:00.0000 UT Step-size : 10 minutes ******************************************************************************* Target pole/equ : undefined Target radii : undefined Center geodetic : 16.3613, -23.2365766, 1.8515 {E-lon(deg),Lat(deg),Alt(km)} Center cylindric: 16.3613,5865.52307,-2501.54567 {E-lon(deg),Dxy(km),Dz(km)} Center pole/equ : ITRF93 {East-longitude positive} Center radii : 6378.137, 6378.137, 6356.752 km {Equator_a, b, pole_c} Target primary : Earth Vis. interferer : MOON (R_eq= 1737.400) km {source: gaia_merged} Rel. light bend : Sun {source: gaia_merged} Rel. lght bnd GM: 1.3271E+11 km^3/s^2 Atmos refraction: NO (AIRLESS) RA format : HMS Time format : CAL Calendar mode : Mixed Julian/Gregorian RTS-only print : NO EOP file : eop.251107.p260203 EOP coverage : DATA-BASED 1962-JAN-20 TO 2025-NOV-07. PREDICTS-> 2026-FEB-02 Units conversion: 1 au= 149597870.700 km, c= 299792.458 km/s, 1 day= 86400.0 s Table cut-offs 1: Elevation ( 0.0deg=YES),Airmass (>38.000=NO), Daylight (YES) Table cut-offs 2: Solar elongation ( 12.0,180.0=YES),Local Hour Angle( 0.0=NO ) Table cut-offs 3: RA/DEC angular rate ( 0.0=NO ) *************************************************************************************************************************************************************************************************************************************************** Date__(UT)__HR:MN R.A._____(ICRF)_____DEC Azi____(a-app)___Elev APmag S-brt r rdot delta deldot S-O-T /r S-T-O T-O-M/MN_Illu% RA_3sigma DEC_3sigma Sky_motion Sky_mot_PA RelVel-ANG *************************************************************************************************************************************************************************************************************************************************** $$SOE 2024-Nov-30 00:00 03 33 29.60 +20 26 36.9 322.034296 36.268368 n.a. n.a. 0.995685671769 -0.3225316 0.00958978024708 0.1608453 168.0274 /T 11.8581 177.1/ 1.5713 n.a. n.a. 0.5527069 194.77407 68.280696 2024-Nov-30 00:10 03 33 29.53 +20 26 31.4 319.766415 34.816477 n.a. n.a. 0.995684378290 -0.3224746 0.00959045484482 0.1754719 168.0198 /T 11.8656 177.2/ 1.5488 n.a. n.a. 0.5840130 185.13689 68.901337 2024-Nov-30 00:20 03 33 29.53 +20 26 25.3 317.606260 33.296843 n.a. n.a. 0.995683085039 -0.3224176 0.00959118724695 0.1896648 168.0124 /T 11.8728 177.3/ 1.5266 n.a. n.a. 0.6288929 176.15558 68.971876 2024-Nov-30 00:30 03 33 29.59 +20 26 18.8 315.549644 31.714835 n.a. n.a. 0.995681792017 -0.3223606 0.00959197565894 0.2033968 168.0054 /T 11.8798 177.4/ 1.5048 n.a. n.a. 0.6866695 168.04526 68.622808 2024-Nov-30 00:40 03 33 29.73 +20 26 11.9 313.591927 30.075466 n.a. n.a. 0.995680499223 -0.3223036 0.00959281817957 0.2166417 167.9985 /T 11.8866 177.4/ 1.4834 n.a. n.a. 0.7562063 160.87754 67.964127 2024-Nov-30 00:50 03 33 29.95 +20 26 04.5 311.728191 28.383388 n.a. n.a. 0.995679206659 -0.3222466 0.00959371280465 0.2293744 167.9920 /T 11.8930 177.5/ 1.4623 n.a. n.a. 0.8362139 154.61955 67.082802 2024-Nov-30 01:00 03 33 30.25 +20 25 56.8 309.953384 26.642901 n.a. n.a. 0.995677914323 -0.3221896 0.00959465743097 0.2415708 167.9858 /T 11.8992 177.6/ 1.4416 n.a. n.a. 0.9254459 149.18206 66.044265 2024-Nov-30 01:10 03 33 30.63 +20 25 48.7 308.262434 24.857965 n.a. n.a. 0.995676622216 -0.3221325 0.00959564986041 0.2532076 167.9798 /T 11.9051 177.6/ 1.4213 n.a. n.a. 1.0227885 144.45588 64.896127 2024-Nov-30 01:20 03 33 31.10 +20 25 40.2 306.650329 23.032214 n.a. n.a. 0.995675330337 -0.3220755 0.00959668780425 0.2642629 167.9742 /T 11.9106 177.7/ 1.4014 n.a. n.a. 1.1272823 140.33318 63.672330 2024-Nov-30 01:30 03 33 31.65 +20 25 31.3 305.112187 21.168978 n.a. n.a. 0.995674038688 -0.3220185 0.00959776888769 0.2747157 167.9690 /T 11.9158 177.7/ 1.3819 n.a. n.a. 1.2381096 136.71715 62.396818 2024-Nov-30 01:40 03 33 32.31 +20 25 22.2 303.643292 19.271301 n.a. n.a. 0.995672747267 -0.3219614 0.00959889065445 0.2845464 167.9640 /T 11.9207 177.7/ 1.3628 n.a. n.a. 1.3545713 133.52508 61.086398 2024-Nov-30 01:50 03 33 33.06 +20 25 12.7 302.239129 17.341967 n.a. n.a. 0.995671456075 -0.3219044 0.00960005057161 0.2937364 167.9595 /T 11.9252 177.8/ 1.3441 n.a. n.a. 1.4760621 130.68810 59.752857 2024-Nov-30 02:00 03 33 33.90 +20 25 03.0 300.895399 15.383515 n.a. n.a. 0.995670165112 -0.3218473 0.00960124603450 0.3022685 167.9553 /T 11.9293 177.8/ 1.3258 n.a. n.a. 1.6020491 128.14958 58.404465 2024-Nov-30 02:10 03 33 34.85 +20 24 53.0 299.608028 13.398266 n.a. n.a. 0.995668874378 -0.3217903 0.00960247437182 0.3101266 167.9515 /T 11.9330 177.8/ 1.3079 n.a. n.a. 1.7320539 125.86317 57.047034 2024-Nov-30 02:20 03 33 35.90 +20 24 42.8 298.373168 11.388336 n.a. n.a. 0.995667583873 -0.3217332 0.00960373285081 0.3172962 167.9481 /T 11.9364 177.8/ 1.2904 n.a. n.a. 1.8656399 123.79096 55.684640 2024-Nov-30 02:30 03 33 37.06 +20 24 32.3 297.187195 9.355657 n.a. n.a. 0.995666293597 -0.3216761 0.00960501868253 0.3237639 167.9451 /T 11.9393 177.8/ 1.2733 n.a. n.a. 2.0024015 121.90182 54.320149 2024-Nov-30 02:40 A 03 33 38.33 +20 24 21.7 296.046701 7.301995 n.a. n.a. 0.995665003549 -0.3216190 0.00960632902733 0.3295177 167.9425 /T 11.9419 177.8/ 1.2566 n.a. n.a. 2.1419568 120.17012 52.955555 2024-Nov-30 02:50 A 03 33 39.70 +20 24 10.9 294.948484 5.228963 n.a. n.a. 0.995663713731 -0.3215619 0.00960766100020 0.3345471 167.9403 /T 11.9440 177.8/ 1.2404 n.a. n.a. 2.2839418 118.57463 51.592245 2024-Nov-30 03:00 Am 03 33 41.18 +20 23 59.9 293.889538 3.138038 n.a. n.a. 0.995662424142 -0.3215048 0.00960901167649 0.3388427 167.9386 /T 11.9458 177.8/ 1.2245 n.a. n.a. 2.4280063 117.09765 50.231165 2024-Nov-30 03:10 Nm 03 33 42.78 +20 23 48.9 292.867040 1.030569 n.a. n.a. 0.995661134782 -0.3214477 0.00961037809743 0.3423969 167.9372 /T 11.9471 177.8/ 1.2090 n.a. n.a. 2.5738107 115.72435 48.872946 >..... Elevation Cut-off Requested .....< >..... Daylight Cut-off Requested .....< 2024-Nov-30 17:40 C 03 38 40.86 +20 27 17.5 59.874357 14.140803 n.a. n.a. 0.995549839509 -0.3164581 0.00958344768890 -0.4060969 168.4915 /T 11.3983 174.5/ 0.4853 n.a. n.a. 1.8886019 46.858625 -61.68565 2024-Nov-30 17:50 C 03 38 41.79 +20 27 30.3 58.565403 16.114905 n.a. n.a. 0.995548570387 -0.3164005 0.00958183496366 -0.3979744 168.4885 /T 11.4013 174.4/ 0.4752 n.a. n.a. 1.7687349 44.314532 -62.76137 2024-Nov-30 18:00 N 03 38 42.61 +20 27 42.9 57.198578 18.061296 n.a. n.a. 0.995547301497 -0.3163429 0.00958025616062 -0.3891843 168.4852 /T 11.4046 174.4/ 0.4650 n.a. n.a. 1.6534222 41.543973 -63.80246 2024-Nov-30 18:10 N 03 38 43.34 +20 27 55.1 55.769729 19.977575 n.a. n.a. 0.995546032838 -0.3162852 0.00957871392433 -0.3797432 168.4815 /T 11.4083 174.3/ 0.4548 n.a. n.a. 1.5431130 38.520860 -64.80199 2024-Nov-30 18:20 N 03 38 43.98 +20 28 07.0 54.274483 21.861110 n.a. n.a. 0.995544764411 -0.3162276 0.00957721083082 -0.3696689 168.4774 /T 11.4124 174.2/ 0.4446 n.a. n.a. 1.4382734 35.217455 -65.75158 2024-Nov-30 18:30 A 03 38 44.52 +20 28 18.6 52.708256 23.709018 n.a. n.a. 0.995543496214 -0.3161700 0.00957574938227 -0.3589803 168.4729 /T 11.4168 174.1/ 0.4344 n.a. n.a. 1.3393848 31.605315 -66.64113 2024-Nov-30 18:40 A 03 38 44.98 +20 28 29.9 51.066280 25.518148 n.a. n.a. 0.995542228249 -0.3161124 0.00957433200246 -0.3476975 168.4681 /T 11.4216 174.1/ 0.4242 n.a. n.a. 1.2469375 27.656896 -67.45855 2024-Nov-30 18:50 A 03 38 45.34 +20 28 40.7 49.343631 27.285056 n.a. n.a. 0.995540960514 -0.3160547 0.00957296103176 -0.3358420 168.4629 /T 11.4268 174.0/ 0.4141 n.a. n.a. 1.1614203 23.348024 -68.18949 2024-Nov-30 19:00 03 38 45.63 +20 28 51.2 47.535285 29.005988 n.a. n.a. 0.995539693011 -0.3159971 0.00957163872276 -0.3234363 168.4574 /T 11.4323 173.9/ 0.4040 n.a. n.a. 1.0833019 18.661379 -68.81717 2024-Nov-30 19:10 03 38 45.83 +20 29 01.3 45.636186 30.676856 n.a. n.a. 0.995538425740 -0.3159394 0.00957036723570 -0.3105037 168.4515 /T 11.4381 173.8/ 0.3940 n.a. n.a. 1.0130029 13.590933 -69.32232 2024-Nov-30 19:20 03 38 45.97 +20 29 10.9 43.641345 32.293230 n.a. n.a. 0.995537158699 -0.3158818 0.00956914863434 -0.2970690 168.4453 /T 11.4442 173.7/ 0.3840 n.a. n.a. 0.9508575 8.1469267 -69.68331 2024-Nov-30 19:30 03 38 46.02 +20 29 20.1 41.545957 33.850324 n.a. n.a. 0.995535891890 -0.3158241 0.00956798488182 -0.2831577 168.4389 /T 11.4506 173.6/ 0.3741 n.a. n.a. 0.8970656 2.3604073 -69.87657 2024-Nov-30 19:40 03 38 46.02 +20 29 28.8 39.345562 35.342994 n.a. n.a. 0.995534625312 -0.3157664 0.00956687783686 -0.2687963 168.4321 /T 11.4573 173.5/ 0.3643 n.a. n.a. 0.8516412 356.28584 -69.87718 2024-Nov-30 19:50 03 38 45.95 +20 29 37.1 37.036232 36.765745 n.a. n.a. 0.995533358966 -0.3157088 0.00956582925009 -0.2540123 168.4251 /T 11.4643 173.4/ 0.3546 n.a. n.a. 0.8143663 350.00009 -69.65961 2024-Nov-30 20:00 03 38 45.81 +20 29 44.9 34.614801 38.112754 n.a. n.a. 0.995532092851 -0.3156511 0.00956484076054 -0.2388337 168.4178 /T 11.4715 173.3/ 0.3450 n.a. n.a. 0.7847641 343.59683 -69.19821 2024-Nov-30 20:10 03 38 45.63 +20 29 52.1 32.079124 39.377908 n.a. n.a. 0.995530826967 -0.3155934 0.00956391389249 -0.2232896 168.4103 /T 11.4790 173.2/ 0.3355 n.a. n.a. 0.7621013 337.17668 -68.46721 2024-Nov-30 20:20 03 38 45.39 +20 29 58.9 29.428369 40.554859 n.a. n.a. 0.995529561315 -0.3155357 0.00956305005242 -0.2074099 168.4026 /T 11.4866 173.1/ 0.3261 n.a. n.a. 0.7454247 330.83535 -67.43974 2024-Nov-30 20:30 03 38 45.11 +20 30 05.1 26.663324 41.637107 n.a. n.a. 0.995528295894 -0.3154780 0.00956225052620 -0.1912247 168.3947 /T 11.4945 173.0/ 0.3169 n.a. n.a. 0.7336264 324.65277 -66.08569 2024-Nov-30 20:40 03 38 44.79 +20 30 10.9 23.786701 42.618109 n.a. n.a. 0.995527030705 -0.3154203 0.00956151647661 -0.1747652 168.3866 /T 11.5025 172.9/ 0.3078 n.a. n.a. 0.7255228 318.68579 -64.36822 2024-Nov-30 20:50 03 38 44.43 +20 30 16.0 20.803416 43.491408 n.a. n.a. 0.995525765747 -0.3153626 0.00956084894095 -0.1580629 168.3783 /T 11.5107 172.8/ 0.2989 n.a. n.a. 0.7199331 312.96554 -62.23882 2024-Nov-30 21:00 03 38 44.04 +20 30 20.6 17.720812 44.250792 n.a. n.a. 0.995524501021 -0.3153049 0.00956024882905 -0.1411498 168.3699 /T 11.5191 172.7/ 0.2901 n.a. n.a. 0.7157436 307.49872 -59.63075 2024-Nov-30 21:10 03 38 43.62 +20 30 24.7 14.548781 44.890470 n.a. n.a. 0.995523236526 -0.3152472 0.00955971692147 -0.1240583 168.3614 /T 11.5276 172.6/ 0.2815 n.a. n.a. 0.7119535 302.27125 -56.45040 2024-Nov-30 21:20 03 38 43.18 +20 30 28.2 11.299770 45.405257 n.a. n.a. 0.995521972263 -0.3151894 0.00955925386786 -0.1068213 168.3527 /T 11.5361 172.5/ 0.2731 n.a. n.a. 0.7077022 297.25270 -52.56625 2024-Nov-30 21:30 03 38 42.73 +20 30 31.2 7.988624 45.790765 n.a. n.a. 0.995520708232 -0.3151317 0.00955886018580 -0.0894718 168.3440 /T 11.5448 172.4/ 0.2649 n.a. n.a. 0.7022821 292.40032 -47.79584 2024-Nov-30 21:40 03 38 42.26 +20 30 33.5 4.632262 46.043574 n.a. n.a. 0.995519444432 -0.3150740 0.00955853625966 -0.0720432 168.3351 /T 11.5535 172.3/ 0.2568 n.a. n.a. 0.6951431 287.66193 -41.89389 2024-Nov-30 21:50 03 38 41.78 +20 30 35.3 1.249194 46.161376 n.a. n.a. 0.995518180864 -0.3150162 0.00955828233993 -0.0545688 168.3263 /T 11.5623 172.2/ 0.2490 n.a. n.a. 0.6858935 282.97758 -34.55428 2024-Nov-30 22:00 t 03 38 41.31 +20 30 36.6 357.858906 46.143077 n.a. n.a. 0.995516917527 -0.3149585 0.00955809854267 -0.0370823 168.3174 /T 11.5711 172.1/ 0.2414 n.a. n.a. 0.6743009 278.28012 -25.45803 2024-Nov-30 22:10 03 38 40.84 +20 30 37.3 354.481146 45.988848 n.a. n.a. 0.995515654423 -0.3149007 0.00955798484927 -0.0196172 168.3085 /T 11.5800 172.0/ 0.2340 n.a. n.a. 0.6602978 273.49472 -14.42613 2024-Nov-30 22:20 03 38 40.37 +20 30 37.4 351.135205 45.700117 n.a. n.a. 0.995514391550 -0.3148430 0.00955794110655 -0.0022070 168.2996 /T 11.5888 171.8/ 0.2268 n.a. n.a. 0.6439938 268.53780 -1.704662 2024-Nov-30 22:30 03 38 39.92 +20 30 36.9 347.839220 45.279503 n.a. n.a. 0.995513128908 -0.3147852 0.00955796702695 0.0151147 168.2907 /T 11.5976 171.7/ 0.2198 n.a. n.a. 0.6256968 263.31591 11.804075 2024-Nov-30 22:40 03 38 39.49 +20 30 35.9 344.609596 44.730703 n.a. n.a. 0.995511866499 -0.3147274 0.00955806218926 0.0323148 168.2819 /T 11.6063 171.6/ 0.2131 n.a. n.a. 0.6059456 257.72517 24.772503 2024-Nov-30 22:50 03 38 39.08 +20 30 34.3 341.460557 44.058339 n.a. n.a. 0.995510604321 -0.3146696 0.00955822603929 0.0493603 168.2731 /T 11.6150 171.5/ 0.2066 n.a. n.a. 0.5855536 251.65322 36.110769 2024-Nov-30 23:00 03 38 38.70 +20 30 32.2 338.403870 43.267775 n.a. n.a. 0.995509342375 -0.3146119 0.00955845789111 0.0662184 168.2644 /T 11.6236 171.4/ 0.2003 n.a. n.a. 0.5656605 244.98586 45.372303 2024-Nov-30 23:10 03 38 38.35 +20 30 29.5 335.448738 42.364935 n.a. n.a. 0.995508080661 -0.3145541 0.00955875692831 0.0828569 168.2559 /T 11.6320 171.3/ 0.1943 n.a. n.a. 0.5477793 237.62261 52.622367 2024-Nov-30 23:20 03 38 38.04 +20 30 26.3 332.601832 41.356113 n.a. n.a. 0.995506819179 -0.3144963 0.00955912220573 0.0992437 168.2474 /T 11.6404 171.1/ 0.1885 n.a. n.a. 0.5338104 229.50464 58.137049 2024-Nov-30 23:30 03 38 37.78 +20 30 22.6 329.867453 40.247805 n.a. n.a. 0.995505557929 -0.3144385 0.00955955265122 0.1153477 168.2391 /T 11.6486 171.0/ 0.1830 n.a. n.a. 0.5259770 220.65479 62.213360 2024-Nov-30 23:40 03 38 37.56 +20 30 18.3 327.247766 39.046555 n.a. n.a. 0.995504296910 -0.3143807 0.00956004706788 0.1311378 168.2310 /T 11.6567 170.9/ 0.1777 n.a. n.a. 0.5266303 211.21744 65.104511 2024-Nov-30 23:50 03 38 37.39 +20 30 13.5 324.743094 37.758830 n.a. n.a. 0.995503036124 -0.3143229 0.00956060413633 0.1465839 168.2231 /T 11.6645 170.8/ 0.1726 n.a. n.a. 0.5379168 201.47098 67.017946 2024-Dec-01 00:00 03 38 37.28 +20 30 08.3 322.352221 36.390923 n.a. n.a. 0.995501775569 -0.3142650 0.00956122241740 0.1616565 168.2153 /T 11.6722 170.7/ 0.1679 n.a. n.a. 0.5613979 191.78581 68.130841 $$EOE *************************************************************************************************************************************************************************************************************************************************** Column meaning: TIME Times PRIOR to 1962 are UT1, a mean-solar time closely related to the prior but now-deprecated GMT. Times AFTER 1962 are in UTC, the current civil or "wall-clock" time-scale. UTC is kept within 0.9 seconds of UT1 using integer leap-seconds for 1972 and later years. Conversion from the internal Barycentric Dynamical Time (TDB) of solar system dynamics to the non-uniform civil UT time-scale requested for output has not been determined for UTC times after the next July or January 1st. Therefore, the last known leap-second is used as a constant over future intervals. Time tags refer to the UT time-scale conversion from TDB on Earth regardless of observer location within the solar system, although clock rates may differ due to the local gravity field and no analog to "UT" may be defined for that location. Any 'b' symbol in the 1st-column denotes a B.C. date. First-column blank (" ") denotes an A.D. date. CALENDAR SYSTEM Mixed calendar mode was active such that calendar dates after AD 1582-Oct-15 (if any) are in the modern Gregorian system. Dates prior to 1582-Oct-5 (if any) are in the Julian calendar system, which is automatically extended for dates prior to its adoption on 45-Jan-1 BC. The Julian calendar is useful for matching historical dates. The Gregorian calendar more accurately corresponds to the Earth's orbital motion and seasons. A "Gregorian-only" calendar mode is available if such physical events are the primary interest. NOTE: "n.a." in output means quantity "not available" at the print-time. SOLAR PRESENCE (OBSERVING SITE) Time tag is followed by a blank, then a solar-presence condition code: '*' Daylight (refracted solar upper-limb on or above apparent horizon) 'C' Civil twilight/dawn 'N' Nautical twilight/dawn 'A' Astronomical twilight/dawn ' ' Night OR geocentric ephemeris LUNAR PRESENCE WITH TARGET RISE/TRANSIT/SET EVENT MARKER (OBSERVING SITE) The solar-presence code column is immediately followed by another marker: 'm' Refracted upper-limb of Moon on or above apparent horizon ' ' Refracted upper-limb of Moon below apparent horizon OR geocentric The lunar presence marker (an ongoing state) can be over-ridden by a target event marker if an event has occurred since the last output step: 'r' Rise (target body on or went above cut-off RTS elevation) 'e' Elevation max (target body maximum elevation angle has occurred) 't' Transit (target body at or passed through observer meridian) 's' Set (target body on or went below cut-off RTS elevation) RTS MARKERS (TVH) Rise and set are with respect to the reference ellipsoid true visual horizon defined by the elevation cut-off angle. Horizon dip and yellow-light refraction (Earth only) are considered. Accuracy is < or = to twice the requested search step-size. 'R.A._____(ICRF)_____DEC' = Astrometric right ascension and declination of the target center with respect to the observing site (coordinate origin) in the reference frame of the planetary ephemeris (ICRF). Compensated for down-leg light-time delay aberration. Units: RA in hours-minutes-seconds of time, HH MM SS.ff{ffff} DEC in degrees-minutes-seconds of arc, sDD MN SC.f{ffff} 'Azi____(a-app)___Elev' = Airless apparent azimuth and elevation of target center. Compensated for light-time, the gravitational deflection of light, stellar aberration, precession and nutation. Azimuth is measured clockwise from north: North(0) -> East(90) -> South(180) -> West(270) -> North (360) Elevation angle is with respect to a plane perpendicular to the reference surface local zenith direction. TOPOCENTRIC ONLY. Units: DEGREES 'APmag S-brt' = The targets' approximate apparent visual magnitude and surface brightness. For planets and natural satellites, output is restricted to solar phase angles covered by observational data. Outside the observed phase angle range, "n.a." may be output to avoid extrapolation beyond the limit of model validity. For Earth-based observers, the estimated dimming due to atmospheric absorption (extinction) is available as a separate, requestable quantity. Surface brightness is the average airless visual magnitude of a square-arcsecond of the illuminated portion of the apparent disk. It is computed only if the target radius is known. Units: MAGNITUDES & MAGNITUDES PER SQUARE ARCSECOND 'r rdot' = The Sun's apparent range ("r", light-time aberrated) and range-rate ("rdot") relative to the target center, as seen by the observer. A positive "rdot" means the target center was moving away from the Sun, negative means moving toward the Sun. Units: AU and KM/S 'delta deldot' = Apparent range ("delta", light-time aberrated) and range-rate ("delta-dot") of the target center relative to the observer. A positive "deldot" means the target center is moving away from the observer, negative indicates movement toward the observer. Units: AU and KM/S 'S-O-T /r' = Sun-Observer-Target apparent SOLAR ELONGATION ANGLE seen from the observers' location at print-time. The '/r' column provides a code indicating the targets' apparent position relative to the Sun in the observers' sky, as described below: Case A: For an observing location on the surface of a rotating body, that body rotational sense is considered: /T indicates target TRAILS Sun (evening sky: rises and sets AFTER Sun) /L indicates target LEADS Sun (morning sky: rises and sets BEFORE Sun) Case B: For an observing point that does not have a rotational model (such as a spacecraft), the "leading" and "trailing" condition is defined by the observers' heliocentric ORBITAL motion: * If continuing in the observers' current direction of heliocentric motion would encounter the targets' apparent longitude first, followed by the Sun's, the target LEADS the Sun as seen by the observer. * If the Sun's apparent longitude would be encountered first, followed by the targets', the target TRAILS the Sun. Two other codes can be output: /* indicates observer is Sun-centered (undefined) /? Target is aligned with Sun center (no lead or trail) The S-O-T solar elongation angle is numerically the minimum separation angle of the Sun and target in the sky in any direction. It does NOT indicate the amount of separation in the leading or trailing directions, which would be defined along the equator of a spherical coordinate system. Units: DEGREES 'S-T-O' = The Sun-Target-Observer angle; the interior vertex angle at target center formed by a vector from the target to the apparent center of the Sun (at reflection time on the target) and the apparent vector from target to the observer at print-time. Slightly different from true PHASE ANGLE (requestable separately) at the few arcsecond level in that it includes stellar aberration on the down-leg from target to observer. Units: DEGREES 'T-O-M/MN_Illu%' = Target-Observer-Moon LUNAR ELONGATION angle and illuminated percentage. The apparent lunar elongation angle between target body center and Moon center, seen from the observing site, along with fraction of the lunar disk illuminated by the Sun. A negative lunar elongation angle indicates the target center is behind the Moon. Units: DEGREES & PERCENT 'RA_3sigma DEC_3sigma' = Uncertainty in Right-Ascension and Declination. Output values are the formal +/- 3 standard-deviations (sigmas) around nominal position. Units: ARCSECONDS 'Sky_motion Sky_mot_PA RelVel-ANG' = Total apparent angular rate of the target in the plane-of-sky. "Sky_mot_PA" is the position angle of the target's direction of motion in the plane-of-sky, measured counter-clockwise from the apparent of-date north pole direction. "RelVel-ANG" is the flight path angle of the target's relative motion with respect to the observer's line-of-sight, in the range [-90,+90], where positive values indicate motion away from the observer, negative values are toward the observer: -90 = target is moving directly toward the observer 0 = target is moving at right angles to the observer's line-of-sight +90 = target is moving directly away from the observer UNITS: ARCSECONDS/MINUTE, DEGREES, DEGREES Computations by ... Solar System Dynamics Group, Horizons On-Line Ephemeris System 4800 Oak Grove Drive, Jet Propulsion Laboratory Pasadena, CA 91109 USA General site: https://ssd.jpl.nasa.gov/ Mailing list: https://ssd.jpl.nasa.gov/email_list.html System news : https://ssd.jpl.nasa.gov/horizons/news.html User Guide : https://ssd.jpl.nasa.gov/horizons/manual.html Connect : browser https://ssd.jpl.nasa.gov/horizons/app.html#/x API https://ssd-api.jpl.nasa.gov/doc/horizons.html command-line telnet ssd.jpl.nasa.gov 6775 e-mail/batch https://ssd.jpl.nasa.gov/ftp/ssd/horizons_batch.txt scripts https://ssd.jpl.nasa.gov/ftp/ssd/SCRIPTS Author : Jon.D.Giorgini@jpl.nasa.gov ***************************************************************************************************************************************************************************************************************************************************